Regional Weather Roundup
Issued by NWS

Home | Current Version | Previous Version | Text Only | Print | Product List | Glossary On
Versions: 1 2 3 4 5 6 7 8 9 10 11 12 13 14 15 16 17 18 19 20 21 22 23 24 25 26 27 28 29 30 31 32 33 34 35 36 37 38 39 40 41 42 43 44 45 46 47 48 49 50
541
ASUS45 KPSR 200910
RWRAZ

ARIZONA HOURLY REGIONAL WEATHER ROUNDUP
NATIONAL WEATHER SERVICE PHOENIX AZ
200 AM MST MON FEB 20 2017

NOTE: FAIR INDICATES FEW OR NO CLOUDS BELOW 12,000 FEET WITH NO
SIGNIFICANT WEATHER AND/OR OBSTRUCTIONS TO VISIBILITY.

AZZ001>003-036-201000-
NORTHWEST ARIZONA

CITY           SKY/WX    TMP DP  RH WIND       PRES   REMARKS
BULLHEAD CITY  MOCLDY    57  50  77 S5        30.09S
KINGMAN        CLEAR     41  37  86 CALM      30.13R
$$

AZZ004>008-015-016-018-201000-
NORTH CENTRAL ARIZONA

CITY           SKY/WX    TMP DP  RH WIND       PRES   REMARKS
GRAND CANYON   FOG       35  35 100 SW8       30.13R VSB 1/2 WCI  29
WILLIAMS       CLOUDY    36  32  87 CALM      30.15R
PRESCOTT       CLOUDY    42  40  92 SE3       30.15R
FLAGSTAFF      CLOUDY    33  30  88 SW7       30.14R WCI  27
PAYSON         CLOUDY    41  39  93 CALM      30.17S
PAGE           CLEAR     40  32  73 SE8       30.07R WCI  34
$$

AZZ009>014-017-201000-
NORTHEAST ARIZONA

CITY           SKY/WX    TMP DP  RH WIND       PRES   REMARKS
WINSLOW        CLEAR     34  31  88 S3        30.12R
SAINT JOHNS    CLEAR     37  32  82 NW13      30.11R WCI  29
WINDOW ROCK    CLOUDY    38  32  79 W12       30.10R WCI  30
SHOW LOW       PTCLDY    32  30  93 S13       30.14S WCI  22
$$

AZZ023-201000-
GREATER PHOENIX AREA

CITY           SKY/WX    TMP DP  RH WIND       PRES   REMARKS
PHOENIX        PTCLDY    53  50  89 E7        30.12R
BUCKEYE        CLOUDY    54  54 100 NE5       30.14S
LUKE AFB       CLEAR     50 N/A N/A N5        30.13R
DEER VALLEY    CLOUDY    53  52  96 E3        30.13R
SCOTTSDALE     PTCLDY    52  51  97 CALM      30.12S
MESA-GATEWAY   PTCLDY    50  48  93 E6        30.15R
$$

AZZ027-028-201000-
SOUTHWEST MARICOPA COUNTY AND PINAL COUNTY

CITY           SKY/WX    TMP DP  RH WIND       PRES   REMARKS
CASA GRANDE    NOT AVBL
GILA BEND      FAIR      51  50  96 SE6       30.12S
$$

AZZ503-504-507>509-201000-
SOUTHEAST ARIZONA

CITY           SKY/WX    TMP DP  RH WIND       PRES   REMARKS
TUCSON         CLOUDY    51  49  92 CALM      30.17R
DAVIS-MONTHAN  DRIZZLE   50  50  99 CALM      30.16R
NOGALES        CLOUDY    45  43  93 CALM      30.16S
SIERRA VISTA   CLOUDY    43  39  87 W5        30.17R
DOUGLAS        PTCLDY    39  37  92 SE5       30.16S
SAFFORD        CLOUDY    48  43  82 NW8       30.12S
$$

AZZ020-021-025-026-031-201000-
SOUTHWEST ARIZONA

CITY           SKY/WX    TMP DP  RH WIND       PRES   REMARKS
YUMA           CLEAR     56  53  90 S3        30.11R
$$

CAZ031-033-041-043-047-048-061-201000-
SOUTHERN CALIFORNIA

CITY           SKY/WX    TMP DP  RH WIND       PRES   REMARKS
DOWNTOWN L.A.  CLOUDY    55  52  89 CALM      30.18R
L.A. AIRPORT   LGT RAIN  54  52  93 SE7       30.18S
SAN DIEGO      CLOUDY    57  45  64 E3        30.21R
BURBANK        CLOUDY    52  48  86 SE8       30.16S
ONTARIO        CLOUDY    51  46  83 E3        30.17S
RIVERSIDE      CLOUDY    51  50  96 NE6       30.17S
PALM SPRINGS   MOCLDY    59  49  69 W3        30.11R
EL CENTRO NAS  PTCLDY    56  44  64 NW6       30.11R
IMPERIAL       PTCLDY    57  45  64 CALM      30.09S
BLYTHE         CLEAR     54  51  90 S8        30.10R
NEEDLES        PTCLDY    55  50  83 CALM      30.09S
$$

NVZ020-UTZ003-201000-
SOUTHERN NEVADA-UTAH

CITY           SKY/WX    TMP DP  RH WIND       PRES   REMARKS
LAS VEGAS      CLOUDY    54  45  71 SW5       30.04R
SALT LAKE CITY PTCLDY    42  35  76 SE10      29.93S
$$

NMZ009-TXZ055-201000-
NEW MEXICO-WEST TEXAS

CITY           SKY/WX    TMP DP  RH WIND       PRES   REMARKS
ALBUQUERQUE    CLOUDY    42  33  70 W7        30.03R
EL PASO        PTCLDY    47  34  60 S8        30.05R
$$


........................KEY........................
SKY/WX - SKY CONDITION/WEATHER
TMP    - TEMPERATURE IN FAHRENHEIT
DP     - DEW POINT IN FAHRENHEIT
RH     - RELATIVE HUMIDITY IN PERCENT
WIND   - DIRECTION AND SPEED IN MILES PER HOUR (MPH)
VRB    - VARIABLE WIND DIRECTION
PRES   - MEAN SEA LEVEL PRESSURE IN INCHES OF MERCURY
         F - FALLING PRESSURE   R - RISING PRESSURE
         S - STEADY PRESSURE
VSB    - VISIBILITY IN MILES
HX     - HEAT INDEX IN FAHRENHEIT
WCI    - WIND CHILL INDEX IN FAHRENHEIT
TC     - TEMPERATURE IN CELSIUS WHICH IS ALSO KNOWN AS
         TEMPERATURE IN CENTIGRADE
AFB    - AIR FORCE BASE
         LUKE AFB IS LUKE AIR FORCE BASE
         DAVIS-MONTHAN IS DAVIS-MONTHAN AIR FORCE BASE
NAS    - NAVAL AIR STATION
         EL CENTRO NAS IS EL CENTRO NAVAL AIR STATION
N/A    - NOT AVAILABLE





USA.gov is the U.S. government's official web portal to all federal, state and local government web resources and services.